Other Surface Observations
Issued by NWS

Home | Current Version | Previous Version | Text Only | Print | Product List | Glossary On
Versions: 1 2 3 4 5 6 7 8 9 10 11 12 13 14 15 16 17 18 19 20 21 22 23 24 25 26 27 28 29 30 31 32 33 34 35 36 37 38 39 40 41 42 43 44 45 46 47 48 49 50
000
SXUS52 KTAE 282306
OSOTAE
OSOTAE
North Florida/South Alabama/Southwest Georgia Weather Roundup
National Weather Service Tallahassee Florida
700 PM EDT WED JUN 28 2017

Note: "fair" indicates few or no clouds below 12,000 feet with no
significant weather and/or obstructions to visibility.

!FLZ017-115-028-034-025-290000
...North Florida...

CITY           SKY/WX    TMP DP  RH WIND       PRES   REMARKS
TALLAHASSEE    CLOUDY    80  77  90 CALM      30.05S
APALACHICOLA   PTSUNNY   83  78  85 E6        30.03S HX  93
PERRY          CLOUDY    84  75  74 CALM      30.06R HX  91
CROSS CITY     LGT RAIN  84  73  70 NE7       30.03S HX  91
JACKSONVILLE   PTSUNNY   82  74  76 NE14      30.08R
$$

!FLZ112-006-005-002-011-290000
...Florida Panhandle...

CITY           SKY/WX    TMP DP  RH WIND       PRES   REMARKS
MARIANNA       LGT RAIN  77  75  93 CALM      30.05S
BONIFAY        NOT AVBL
PANAMA CITY NW CLOUDY    78  75  90 NW5       30.04F
TYNDALL AFB    CLOUDY    73  72  94 CALM      30.05R
TYND DRONE APT LGT RAIN  76  74  93 N3        30.05S
DE FUNIAK SPR  FAIR      74  72  93 E3        30.05F
EGLIN AFB      PTSUNNY   75  72  91 NE5       30.03F
DESTIN         CLOUDY    79  32  18 NE5       30.03F
HURLBURT       PTSUNNY   77  71  80 E8        30.02S
CRESTVIEW      LGT RAIN  75  72  90 CALM      30.06F
PENSACOLA      CLOUDY    82  72  71 E8        30.02S
$$

!ALZ063-066-290000
...South Alabama...

CITY           SKY/WX    TMP DP  RH WIND       PRES   REMARKS
DOTHAN         CLOUDY    82  72  71 SE8       30.08F
OZARK CAIRNS   DRIZZLE   77  75  93 S6        30.04S
FT RUCKER HELI CLOUDY    78  75  91 S8        30.04S
RUCKER HELI 3  FAIR      77  74  92 SW6       30.04F
RUCKER HELI 2  PTSUNNY   79  75  89 S3        30.03S
FLORALA APT    LGT RAIN  74  71  91 SW3       30.06F
ANDALUSIA      CLOUDY    77  71  82 CALM      30.05S
TROY           CLOUDY    82  71  69 SE6       30.05F
EUFALA         FAIR      85  70  60 SE3       30.04F
MOBILE         CLOUDY    75  72  90 NW3       30.03F THUNDER
$$

!GAZ120>161-290000
...Southwest and South Central Georgia...

CITY           SKY/WX    TMP DP  RH WIND       PRES   REMARKS
THOMASVILLE    PTSUNNY   81  73  78 E8        30.07S
BAINBRIDGE     CLOUDY    84  75  74 SE5       30.05S HX  92
MOODY AFB      MOSUNNY   82  72  72 E7        30.07R
VALDOSTA       MOSUNNY   82  72  71 E7        30.07R
MOULTRIE       PTSUNNY   79  72  78 E6        30.08S
BLAKELY        CLOUDY    86  72  62 CALM      30.05F HX  92
ALBANY         CLOUDY    85  69  58 SE8       30.08S
TIFTON         PTSUNNY   79  77  93 CALM      30.08S
FITZGERALD     CLOUDY    83  72  68 SE3       30.10S
CORDELE        MOCLDY    89  68  50 E5        30.08F HX  93
AMERICUS       CLOUDY    82  64  54 E5        30.09F
HOMERVILLE     FAIR      82  72  69 SE6       30.09S
$$

!GMZ750-755-770-775-290000
...Coastal and Buoy Obs...

STATION/POSITION TIME  TEMP    WIND        PRES    VSBY  WAVE
                       AIR SEA DIR/SP/G                  HT/PER
                 (UTC) (F)     (DEG/KT/KT) (MB)    (MI)  (FT/S)
KEATON BEACH     2300   78      80/  1/  2 1016.9F
CEDAR KEY        2200   86     300/  8/ 10 1016.8F
C TOWER          2300   81     120/ 10/ 10 1017.6R
APALACHICOLA BUO 2250   83 86  100/  8/ 10 1016.4F         1
PANAMA CITY BUOY 2150   83 83  120/  6/  8 1016.3          1/ 8
MOBILE BUOY      2250   80 81  160/  4/  6 1015.9F         1/ 3
ORANGE BCH AL BU 2250   78 82   30/  6/  8 1015.9F         1/ 3
$$




USA.gov is the U.S. government's official web portal to all federal, state and local government web resources and services.